Location: Caltech
(34.1382°N, 118.1253°W)
Time: 19:51:50
(UTC-07:00)

RS-15 - Visible Passes

Search period start: 25 June 2016 00:00
Search period end: 05 July 2016 00:00
Orbit: 1883 x 2161 km, 64.8° (Epoch: 24 June)

Date Brightness Start Highest point End Pass type
(mag) Time Alt. Az. Time Alt. Az. Time Alt. Az.
25 Jun 9.4 00:33:11 10° WNW 00:41:01 20° W 00:44:46 17° WSW visible
25 Jun 8.2 21:41:45 10° NNW 21:54:09 73° ENE 22:02:23 25° SE visible
25 Jun 9.2 23:55:48 10° NW 00:05:30 29° WSW 00:10:08 23° SW visible
26 Jun 8.4 21:05:46 10° NNW 21:17:55 58° NE 21:27:47 17° SE visible
26 Jun 8.9 23:18:58 10° NW 23:29:54 39° WSW 23:35:33 27° SSW visible
27 Jun 8.7 20:29:49 10° NNW 20:41:32 46° NE 20:53:04 10° ESE visible
27 Jun 8.6 22:42:27 10° NW 22:54:10 53° WSW 23:01:00 28° S visible
28 Jun 8.3 22:06:08 10° NNW 22:18:20 69° WSW 22:26:28 25° S visible
29 Jun 9.8 00:24:57 10° WNW 00:28:28 12° W 00:31:58 10° WSW visible
29 Jun 8.2 21:29:58 10° NNW 21:42:24 87° WSW 21:52:00 20° SSE visible
29 Jun 9.6 23:45:37 10° WNW 23:53:05 19° W 23:59:47 11° SW visible
30 Jun 8.2 20:53:54 10° NNW 21:06:19 76° ENE 21:17:34 13° SE visible
30 Jun 9.4 23:08:06 10° NW 23:17:35 27° WSW 23:25:21 14° SSW visible
01 Jul 8.4 20:17:54 10° NNW 20:30:07 60° NE 20:42:05 10° SE visible
01 Jul 9.1 22:31:12 10° NW 22:41:59 38° WSW 22:50:58 15° SSW visible
02 Jul 8.7 21:54:39 10° NW 22:06:17 51° WSW 22:16:38 13° S visible
03 Jul 8.5 21:18:19 10° NW 21:30:29 66° WSW 21:42:21 10° S visible
03 Jul 10.0 23:38:17 10° W 23:40:30 11° W 23:42:45 10° WSW visible
04 Jul 8.3 20:42:08 10° NNW 20:54:33 84° WSW 21:06:42 10° SSE visible
04 Jul 9.8 22:58:05 10° WNW 23:05:08 18° W 23:12:09 10° SW visible
